Wind_Speed
17 17 19 21 24 26 26 25 24 24 26 27 28 28 28 27 26 26 25 24 23 21 19 18 17 17 17 17 17 16 15 14 14 14 14 14 13 13 12 11 9 7 6 6 5 4 4 4 4 6 7 5 4 2 2 2 2 2 2 2 2 3
19 21 23 25 26 27 26 24 22 22 23 25 27 28 28 28 28 26 24 24 23 20 19 18 18 17 18 18 17 17 15 14 14 14 14 14 13 13 12 10 8 7 6 6 5 4 4 5 4 6 7 4 3 2 2 2 2 2 2 2 2 3
22 23 25 27 28 28 25 22 20 21 23 24 24 25 26 27 27 26 25 25 22 19 19 18 18 18 18 18 18 17 16 15 14 14 14 13 13 13 11 9 8 7 7 6 5 5 5 4 3 4 5 5 4 3 2 2 2 3 2 3 3 4
24 25 27 28 29 27 23 20 20 21 23 24 23 23 22 22 22 23 25 25 22 20 18 18 18 18 19 18 18 17 16 15 15 14 13 13 13 12 11 9 8 8 7 6 6 5 6 3 2 2 5 5 6 4 2 3 4 5 5 6 7 7
25 27 29 29 27 25 22 20 21 22 23 24 22 20 18 16 18 21 23 24 22 20 18 18 19 19 19 18 17 16 15 15 15 14 14 13 13 11 10 9 8 8 8 7 6 6 6 4 1 3 5 6 7 7 6 6 6 7 8 10 10 11
27 29 29 28 26 24 22 20 21 22 23 23 20 17 15 14 15 18 20 22 21 19 18 18 19 19 19 18 16 16 14 13 15 15 14 13 12 11 10 9 9 9 9 8 6 6 7 6 3 2 3 4 5 6 6 7 7 7 8 9 10 11
28 29 28 27 24 23 21 21 20 21 22 21 17 14 14 14 14 14 16 17 18 17 18 18 19 20 19 17 16 16 15 15 15 15 14 13 12 11 10 9 9 9 10 8 6 7 8 7 3 2 3 3 3 4 4 5 5 5 6 7 8 9
28 27 25 23 22 21 20 20 18 19 20 18 16 14 14 14 15 15 14 15 15 15 16 18 19 19 19 17 16 17 17 15 15 14 14 13 12 11 10 9 10 10 10 7 5 8 9 7 4 2 2 2 3 3 4 4 4 5 7 8 9 9
27 25 23 22 21 19 19 18 17 18 18 17 15 15 15 15 16 17 16 15 15 15 15 16 18 18 18 16 15 16 16 14 14 14 13 13 12 11 11 10 10 10 9 6 6 8 9 7 4 1 1 2 3 3 3 4 4 5 7 8 9 10
26 25 24 23 22 20 18 16 16 17 18 17 17 16 16 17 17 17 16 16 15 15 15 16 16 17 16 14 14 15 15 14 14 14 13 13 12 12 11 10 9 10 8 6 7 8 8 6 3 2 3 3 3 3 4 5 5 6 7 8 9 11
26 26 24 22 20 18 17 15 15 17 19 19 18 17 17 17 17 16 15 14 13 13 14 15 15 16 14 14 15 16 16 16 15 14 13 12 12 13 11 9 10 11 8 7 8 8 7 5 3 3 4 4 4 4 5 5 6 6 7 9 10 11
27 26 26 24 20 18 18 17 18 18 19 20 18 17 16 16 16 14 13 12 12 13 14 14 15 14 12 13 15 16 16 17 17 13 12 12 12 14 11 9 11 10 7 7 8 8 7 5 4 4 5 6 5 4 4 5 6 6 7 9 10 9
26 25 25 25 22 20 19 20 20 19 20 20 18 16 15 16 15 13 12 12 14 14 14 15 15 14 13 13 14 16 16 17 18 15 12 12 13 15 13 10 11 11 9 8 8 7 7 6 5 4 5 6 4 4 5 5 5 6 7 9 9 7
24 24 24 24 23 21 21 21 20 19 19 19 18 17 16 16 16 14 12 13 14 13 14 14 14 13 13 14 15 14 14 14 16 16 15 15 14 15 14 12 12 12 11 11 9 8 7 7 6 5 6 5 4 4 5 5 5 5 7 8 6 5
20 23 24 24 23 22 22 22 21 20 20 19 17 17 17 16 16 15 13 14 14 13 14 13 11 11 12 14 14 13 12 13 15 15 16 17 16 14 13 12 12 12 12 11 9 8 7 6 6 6 6 4 4 4 5 5 4 5 6 6 4 4
21 22 23 23 22 21 21 21 20 20 20 19 18 17 16 16 16 16 14 14 14 14 14 12 9 10 12 13 13 13 13 13 14 14 15 16 16 15 12 10 11 11 11 10 8 6 5 5 6 6 6 5 4 5 4 4 4 4 5 5 3 3
23 21 21 20 20 21 20 18 18 19 19 18 17 16 14 15 16 16 15 14 14 14 14 11 10 11 13 12 12 14 14 14 13 14 16 15 15 16 14 11 10 10 9 8 6 5 4 5 5 6 6 5 5 5 4 5 4 3 3 3 3 2
24 22 23 23 22 21 18 16 18 19 19 19 17 15 14 14 14 15 15 14 13 13 13 11 10 11 12 13 13 13 15 16 14 14 16 14 13 14 14 11 10 9 9 7 6 4 4 5 5 6 6 5 5 5 4 5 4 3 2 2 3 2
24 21 23 23 21 19 18 18 19 19 19 19 17 15 15 14 13 13 14 13 12 12 11 10 10 11 12 12 13 14 15 15 13 13 15 15 14 14 13 11 9 9 9 7 6 5 5 6 6 7 6 6 5 5 5 4 4 3 2 3 3 2
22 22 23 22 18 17 19 20 20 19 19 19 17 17 16 14 12 12 13 11 10 10 10 9 10 11 11 12 13 16 15 13 12 13 15 16 16 15 12 10 10 10 9 8 7 6 5 6 7 7 7 6 5 5 4 4 4 4 2 2 2 1
18 20 23 23 20 18 20 20 20 19 17 17 19 18 17 14 12 12 11 10 10 10 9 9 10 10 11 12 14 17 16 13 12 14 16 16 16 15 12 10 11 11 10 9 8 6 6 6 7 7 7 6 5 5 4 4 4 4 2 2 2 1
20 25 29 27 20 18 21 19 17 17 15 15 18 18 15 13 12 11 10 10 9 9 9 10 11 11 11 12 14 16 16 14 13 15 16 16 15 14 12 11 11 11 10 9 8 7 6 7 8 7 7 7 6 5 5 5 5 4 3 3 3 4
20 21 25 24 19 19 21 18 17 17 14 14 16 15 13 12 12 11 9 10 10 10 11 11 11 11 11 12 13 15 14 13 13 15 15 15 15 14 12 12 12 11 10 10 9 8 7 8 8 7 7 7 6 6 6 6 6 5 4 3 4 4
20 17 12 10 17 22 21 17 16 17 14 12 12 12 12 12 12 10 9 10 11 11 11 11 11 11 12 12 13 13 13 13 14 15 16 15 15 14 13 12 12 12 11 10 10 9 9 9 8 8 8 8 8 8 8 7 7 6 5 4 5 5
25 28 20 13 10 14 16 16 17 17 15 12 12 12 13 12 11 9 9 10 10 10 11 11 11 11 12 12 12 13 13 14 15 15 16 15 14 14 13 13 13 13 12 12 11 10 10 10 9 9 9 9 9 10 9 8 7 6 6 5 6 6
27 31 27 22 15 10 7 7 12 14 13 13 13 14 14 12 10 9 9 10 9 10 11 12 13 13 13 12 12 13 13 14 15 16 16 16 15 15 15 15 14 14 13 13 12 12 11 11 10 10 10 10 10 10 9 8 7 7 7 6 6 7
29 28 25 24 20 14 9 4 4 6 8 12 14 13 12 10 9 9 10 10 9 10 12 13 14 14 13 12 13 13 13 15 16 16 16 17 17 17 16 16 15 14 14 14 13 13 12 11 11 10 11 10 10 10 9 8 7 7 7 6 6 7
26 25 21 21 20 17 13 10 7 5 5 9 11 11 10 10 10 9 10 11 10 11 13 15 16 15 15 14 13 13 14 15 16 17 18 18 18 18 17 16 16 15 15 15 14 14 12 11 11 10 11 11 11 10 9 8 7 7 7 7 6 7
19 22 21 20 19 16 13 11 11 10 9 9 11 11 11 11 11 11 12 12 12 13 15 16 17 17 16 15 14 14 15 17 17 18 19 19 19 19 18 17 16 15 15 15 15 14 12 11 11 11 11 11 11 10 9 8 8 8 8 7 7 7
16 18 19 19 18 16 13 10 10 11 11 13 14 13 12 11 12 12 13 13 13 14 15 16 17 18 17 15 14 15 17 18 18 19 19 19 19 19 18 17 16 16 16 16 15 13 12 12 12 11 12 12 11 10 9 9 8 8 8 8 8 8
17 17 18 19 18 17 15 12 12 11 10 12 15 15 13 12 13 14 14 14 14 15 15 16 16 17 17 15 15 16 18 18 18 18 19 19 19 19 19 18 17 17 17 16 15 13 12 12 12 12 12 11 10 9 9 9 9 9 9 9 9 9
19 18 18 19 19 19 18 16 16 16 13 13 13 14 13 14 15 17 17 17 17 17 17 17 17 16 17 16 16 17 18 18 18 18 19 20 19 19 18 18 17 18 18 17 16 14 13 13 13 12 12 11 10 10 10 9 9 9 9 9 10 10
21 20 19 20 21 21 20 20 19 18 19 20 17 15 14 14 16 17 18 20 20 20 20 20 18 18 18 18 17 18 18 18 18 19 20 20 19 19 18 18 18 18 18 18 17 16 15 14 14 13 12 12 11 11 10 10 10 10 10 9 10 11
22 21 20 20 22 22 22 22 21 18 19 21 19 16 15 15 16 17 18 21 23 23 22 22 20 20 21 20 19 18 19 19 19 19 20 20 19 19 19 19 19 19 19 19 18 17 15 15 14 13 13 13 12 12 11 11 10 10 10 9 10 10
23 23 22 22 23 24 22 21 22 20 18 18 16 15 15 16 17 18 19 22 24 24 24 22 21 22 21 21 20 19 19 19 19 20 21 21 20 20 20 20 19 19 19 19 18 17 15 15 15 14 14 14 13 12 12 11 11 10 9 8 9 9
24 24 24 24 23 23 22 21 23 24 23 22 21 19 17 17 18 19 20 22 24 25 25 23 22 21 21 21 21 20 19 19 19 20 22 22 22 21 20 20 20 20 20 19 18 17 16 16 15 16 16 15 14 12 12 11 10 10 8 8 9 10
26 26 24 24 22 19 19 21 22 24 25 26 25 23 21 21 21 22 22 23 24 24 24 24 23 22 22 22 21 20 19 19 21 22 23 23 22 21 21 21 21 21 21 20 19 18 17 16 16 17 16 15 14 12 12 11 11 10 9 8 10 10
Wind_Direction
262 260 257 256 257 258 261 266 272 274 274 275 274 272 271 272 272 275 278 279 278 278 279 276 274 277 282 285 287 288 290 292 288 283 284 288 292 294 294 297 304 306 297 296 298 292 283 289 310 316 315 324 336 349 327 294 275 281 281 272 275 273
254 254 254 255 256 258 261 267 272 272 272 272 272 271 272 272 269 269 271 272 273 276 276 273 273 277 281 284 286 286 286 287 283 279 280 284 287 288 289 293 300 299 287 288 291 293 296 303 330 322 312 312 311 318 324 302 296 303 301 302 302 289
249 251 253 255 256 258 263 269 272 272 272 271 270 270 270 271 269 265 264 266 270 271 271 270 272 276 280 283 285 284 284 283 280 277 277 280 283 284 287 291 295 288 280 280 283 293 298 307 357 328 305 310 313 319 357 4 356 336 306 293 304 306
249 251 252 254 257 262 269 273 273 272 270 270 269 269 270 268 263 261 260 263 267 266 266 267 270 274 279 282 281 282 285 283 278 276 276 277 279 281 284 288 287 279 272 271 277 291 294 303 5 297 283 302 309 298 306 340 341 324 302 289 293 300
248 250 253 257 263 270 275 275 271 268 267 269 269 268 270 261 254 258 261 265 265 262 263 264 268 273 277 278 277 280 285 281 274 272 273 274 276 277 280 281 277 269 263 262 273 288 288 288 287 251 266 286 295 290 295 313 316 307 297 291 292 296
250 254 258 264 271 274 275 273 268 266 266 268 269 265 262 255 252 257 261 265 265 262 262 263 267 273 274 274 275 276 277 273 268 269 271 272 272 272 272 270 266 261 255 255 270 281 279 276 259 201 244 272 297 300 306 318 314 303 298 296 294 295
256 261 265 270 272 273 272 270 267 265 264 264 261 254 252 251 250 253 257 261 261 261 263 264 268 270 270 271 273 272 268 264 264 266 266 267 266 263 261 258 257 255 251 253 267 273 273 271 247 163 195 245 303 318 330 333 315 299 299 301 296 292
261 266 268 270 271 271 269 268 265 261 259 255 247 243 249 250 246 248 255 259 254 253 258 261 264 265 266 270 273 270 261 256 258 260 262 262 257 254 252 249 250 250 250 253 263 270 271 267 248 179 181 240 288 311 332 331 310 287 288 295 295 292
263 265 267 271 273 271 268 265 263 257 251 247 245 246 249 250 248 247 251 257 254 249 251 256 258 260 266 270 272 267 256 251 254 255 257 255 251 250 247 244 245 247 248 249 256 266 268 267 270 280 290 293 298 310 313 307 296 284 289 299 301 300
261 262 267 273 272 269 266 263 257 252 248 248 251 252 253 253 252 250 253 258 255 247 247 253 257 261 267 268 267 263 257 253 251 249 251 249 248 247 244 242 243 244 242 239 246 255 258 267 291 293 303 315 306 301 296 295 298 299 307 310 308 305
261 264 268 273 271 263 259 256 251 249 250 253 255 254 256 254 251 254 259 256 245 239 243 251 257 262 265 265 264 261 258 252 243 241 244 245 247 245 241 239 241 239 233 233 238 242 245 262 292 285 293 305 293 284 283 289 299 312 317 312 309 307
260 263 265 266 265 259 254 253 250 247 249 252 255 256 257 253 248 252 255 245 234 233 239 248 254 257 258 258 260 259 257 247 233 234 241 240 245 244 235 229 234 229 219 230 236 238 243 255 280 283 283 286 284 282 285 294 307 318 319 313 312 312
257 260 261 261 260 255 250 251 250 247 247 251 255 257 258 252 242 242 245 235 229 230 235 247 253 254 253 254 259 259 255 241 228 232 240 237 243 243 231 220 227 224 217 230 232 233 246 254 262 264 268 277 282 286 290 302 318 322 319 318 319 322
254 257 259 259 255 249 244 247 248 244 244 250 256 256 255 249 234 231 236 229 226 230 237 248 253 253 250 255 262 254 244 235 230 236 239 237 244 246 237 226 227 228 226 231 228 226 238 248 257 260 264 273 277 284 294 312 330 327 321 324 325 330
255 257 257 256 249 242 240 241 242 241 244 249 255 257 252 242 229 226 229 225 227 234 241 247 250 247 246 256 259 241 231 232 231 235 237 237 240 242 242 232 226 229 228 226 219 215 225 238 256 267 272 276 273 282 299 316 332 331 326 328 325 326
259 261 262 258 249 243 241 241 242 243 247 252 257 258 249 236 223 221 225 225 228 236 242 244 241 241 245 254 248 227 224 226 228 235 234 236 238 236 235 229 226 229 224 216 204 201 221 238 255 268 279 283 275 283 293 303 315 327 333 333 325 322
267 267 268 262 254 253 250 245 248 250 255 260 261 257 244 231 223 222 226 227 230 238 241 239 237 243 245 245 237 226 220 220 230 238 232 236 241 234 230 227 230 231 221 214 209 209 232 252 261 268 279 279 269 272 273 282 299 327 348 342 336 332
271 269 267 263 260 260 254 246 250 255 262 265 256 245 233 229 231 229 227 227 231 236 236 232 234 242 243 239 235 225 217 220 233 235 228 234 235 230 229 226 227 228 222 220 223 231 253 269 272 265 271 273 264 259 258 274 296 326 351 342 338 341
271 272 268 265 264 261 251 247 253 255 259 259 244 229 226 231 237 230 222 220 226 231 229 228 234 240 242 239 230 219 216 226 236 233 229 232 229 227 229 223 220 224 226 230 235 246 263 272 272 264 265 265 256 253 254 270 297 316 333 343 338 343
274 274 269 264 264 258 247 245 251 252 255 252 230 218 225 233 235 227 219 214 215 223 224 225 232 238 240 238 224 212 216 230 236 230 231 234 230 227 227 220 217 221 225 233 241 253 269 272 272 268 266 266 260 259 263 277 297 305 312 334 337 22
281 277 269 262 258 246 239 242 243 246 253 242 218 215 226 231 231 227 218 211 212 219 223 226 231 238 243 237 222 213 220 233 234 226 228 233 230 225 223 218 218 222 223 232 244 255 267 271 274 274 268 268 269 270 275 283 293 293 289 297 274 230
293 287 269 258 255 240 235 239 238 240 247 232 214 215 224 226 227 224 215 211 216 222 226 230 233 239 240 228 219 220 226 232 231 227 227 229 227 223 220 215 218 225 229 236 244 253 262 266 271 274 269 265 264 266 271 276 277 273 267 268 249 247
293 285 266 251 243 238 236 237 237 237 239 225 213 214 219 221 222 220 215 215 218 224 228 230 231 232 225 217 221 225 224 225 227 228 228 224 222 222 221 218 220 226 232 239 244 249 254 258 262 264 260 256 249 249 255 259 258 255 253 252 247 247
268 255 273 264 237 237 238 238 237 232 229 223 213 211 214 216 217 218 219 216 214 219 226 228 226 221 213 212 219 216 214 220 223 226 229 224 218 220 224 224 226 228 231 237 242 246 248 251 253 252 248 243 234 234 242 246 246 247 250 246 241 237
270 265 289 309 273 252 243 236 232 228 225 223 219 217 214 212 215 220 222 215 210 214 221 223 216 207 200 201 208 209 212 220 223 225 227 225 220 221 224 226 228 228 229 234 237 241 244 247 248 245 241 237 231 232 237 241 243 245 247 240 230 229
280 286 300 308 304 293 271 233 225 228 224 220 223 222 216 215 218 224 226 220 217 220 219 212 203 196 192 196 207 214 217 222 225 225 225 225 223 223 223 225 227 228 230 233 235 237 239 243 244 243 241 240 237 239 239 240 244 247 249 242 226 221
275 285 298 303 296 285 287 286 232 226 221 220 223 222 222 227 228 227 228 226 224 224 217 207 200 200 203 209 216 219 221 225 226 224 224 226 226 225 224 225 227 229 232 235 235 235 236 239 241 242 244 246 244 244 245 243 244 249 251 247 233 222
275 276 280 287 286 277 272 277 271 257 234 219 214 216 229 241 243 239 236 232 224 217 215 210 208 211 215 218 218 218 222 225 225 224 225 225 226 226 226 226 228 230 233 234 234 233 232 235 238 239 244 247 246 246 248 249 248 250 248 244 238 229
278 277 274 274 279 279 271 268 267 260 251 234 218 220 235 246 254 252 240 231 220 215 214 212 212 213 215 217 217 220 223 224 225 225 224 224 225 226 226 228 230 231 231 232 232 232 231 234 236 238 240 243 245 246 248 250 253 252 247 243 237 233
270 269 268 265 268 275 274 263 252 247 244 238 230 227 233 241 249 247 233 221 215 215 214 210 209 210 215 219 221 222 225 225 226 227 227 227 227 227 228 229 230 230 228 228 230 231 231 235 238 239 239 240 241 241 243 248 254 255 253 250 242 236
264 259 257 257 258 264 270 263 253 256 250 237 228 224 226 230 232 231 225 219 217 216 216 213 210 213 219 223 224 226 229 229 229 230 232 232 231 231 231 231 229 227 226 226 227 229 231 235 238 239 240 239 239 238 239 244 250 256 257 252 244 236
265 263 260 258 257 259 265 264 261 266 266 253 236 221 219 224 226 227 227 227 226 222 222 222 220 221 221 221 225 230 233 233 232 233 234 233 232 232 233 233 230 226 225 224 226 228 230 233 235 237 238 237 236 235 237 242 247 253 255 251 242 232
266 267 265 258 254 253 258 260 258 262 263 259 251 230 218 223 228 229 229 231 230 225 224 225 224 222 221 223 229 233 235 236 235 236 236 234 233 232 233 234 230 226 225 225 226 228 230 233 234 234 234 233 231 230 235 240 245 251 254 251 243 232
267 269 266 258 252 250 253 253 251 255 255 249 246 234 223 226 231 234 234 234 232 228 225 224 222 222 224 228 232 235 237 237 237 238 237 235 234 233 232 231 230 227 227 228 230 231 232 235 236 235 234 233 231 230 233 237 243 249 252 250 246 238
266 266 260 256 251 247 248 245 239 239 239 237 241 243 238 235 235 236 238 238 236 232 227 224 224 225 226 229 232 235 237 238 239 239 238 236 235 232 229 229 229 228 229 231 233 235 236 238 240 240 237 234 232 232 235 239 243 247 248 246 246 242
264 256 251 252 249 242 239 236 232 231 234 240 247 253 252 245 240 238 238 239 238 235 229 225 226 226 224 226 231 234 236 238 240 238 236 236 236 234 230 228 228 229 230 232 234 236 239 241 244 245 242 237 235 235 239 242 244 244 243 241 243 241
261 254 250 249 245 238 229 225 226 227 232 239 245 250 251 247 242 239 238 238 238 238 233 227 227 224 219 222 230 233 232 234 236 234 234 235 236 236 233 231 230 230 231 233 234 236 240 244 246 247 246 241 238 239 242 244 243 240 235 233 237 236
Height
5842 5842 5842 5842 5842 5842 5843 5844 5845 5845 5844 5843 5843 5843 5842 5842 5841 5841 5841 5841 5841 5841 5841 5841 5841 5841 5841 5840 5840 5839 5839 5839 5838 5837 5837 5836 5835 5835 5834 5834 5834 5834 5834 5835 5835 5836 5836 5836 5836 5835 5834 5833 5833 5833 5833 5832 5832 5833 5832 5832 5832 5832
5839 5839 5839 5840 5840 5840 5841 5842 5843 5842 5841 5840 5840 5840 5839 5839 5839 5839 5839 5839 5839 5839 5839 5839 5840 5839 5839 5839 5838 5838 5838 5837 5837 5836 5836 5835 5834 5834 5833 5833 5833 5833 5834 5834 5834 5835 5835 5835 5836 5835 5833 5832 5832 5832 5832 5832 5832 5832 5832 5832 5832 5832
5837 5837 5837 5837 5837 5838 5839 5840 5840 5839 5838 5837 5837 5837 5837 5836 5836 5837 5837 5836 5837 5837 5838 5838 5838 5838 5838 5837 5837 5837 5837 5836 5836 5835 5835 5834 5833 5833 5832 5832 5832 5833 5833 5833 5834 5834 5834 5835 5836 5834 5832 5831 5831 5832 5831 5831 5831 5831 5831 5831 5831 5831
5835 5835 5835 5834 5835 5836 5838 5838 5838 5837 5835 5834 5834 5834 5834 5834 5834 5834 5834 5834 5835 5835 5836 5836 5836 5836 5836 5836 5835 5835 5835 5835 5835 5834 5834 5833 5832 5832 5831 5831 5832 5832 5832 5832 5833 5833 5833 5834 5835 5833 5831 5830 5830 5831 5831 5831 5831 5831 5831 5830 5830 5830
5833 5833 5832 5832 5834 5835 5836 5836 5835 5834 5833 5832 5831 5831 5832 5832 5832 5832 5832 5833 5833 5833 5834 5835 5835 5835 5835 5835 5834 5834 5834 5834 5834 5833 5833 5832 5832 5831 5830 5831 5831 5831 5831 5831 5832 5832 5832 5832 5834 5833 5830 5829 5829 5829 5829 5830 5830 5830 5829 5829 5829 5829
5831 5831 5830 5831 5832 5833 5833 5832 5831 5831 5830 5829 5829 5830 5830 5830 5830 5830 5831 5831 5831 5832 5832 5833 5833 5834 5833 5833 5833 5832 5832 5833 5833 5832 5832 5832 5831 5830 5830 5830 5830 5830 5830 5830 5831 5831 5830 5830 5832 5832 5830 5829 5829 5828 5828 5829 5829 5828 5828 5828 5827 5827
5828 5828 5829 5830 5830 5830 5830 5829 5829 5828 5828 5827 5827 5828 5827 5828 5828 5829 5829 5829 5829 5830 5831 5832 5832 5832 5832 5832 5831 5831 5831 5831 5831 5831 5831 5831 5830 5829 5829 5830 5829 5829 5829 5830 5831 5830 5829 5829 5830 5831 5830 5829 5829 5828 5827 5827 5827 5827 5827 5826 5826 5826
5826 5827 5827 5828 5828 5828 5827 5826 5826 5826 5825 5825 5825 5825 5825 5825 5826 5827 5827 5827 5828 5828 5829 5830 5830 5830 5830 5830 5830 5829 5829 5829 5830 5830 5830 5829 5829 5828 5828 5829 5828 5828 5828 5830 5831 5829 5828 5828 5829 5831 5831 5830 5829 5828 5827 5826 5826 5826 5826 5825 5825 5824
5824 5824 5825 5825 5825 5825 5825 5824 5824 5824 5823 5823 5823 5823 5823 5823 5824 5824 5825 5825 5826 5827 5828 5829 5829 5828 5828 5828 5828 5828 5827 5828 5828 5828 5828 5828 5827 5827 5827 5828 5828 5827 5828 5830 5831 5829 5828 5828 5829 5830 5830 5830 5829 5828 5827 5826 5826 5825 5825 5824 5823 5823
5822 5822 5822 5822 5822 5822 5822 5822 5822 5821 5821 5821 5821 5821 5821 5821 5822 5822 5823 5823 5824 5825 5826 5827 5827 5827 5826 5827 5827 5826 5826 5827 5827 5827 5827 5826 5826 5826 5826 5827 5827 5827 5828 5830 5830 5828 5827 5827 5828 5829 5829 5829 5828 5827 5826 5825 5824 5824 5824 5823 5822 5821
5819 5819 5819 5819 5819 5819 5819 5819 5819 5819 5819 5819 5819 5819 5819 5819 5820 5820 5821 5822 5822 5823 5824 5824 5825 5825 5824 5825 5825 5825 5825 5825 5826 5826 5825 5825 5824 5824 5825 5827 5826 5826 5828 5829 5828 5828 5827 5828 5828 5828 5828 5828 5827 5827 5826 5825 5824 5823 5823 5822 5821 5820
5817 5816 5816 5816 5816 5816 5816 5816 5816 5816 5816 5816 5817 5817 5817 5817 5818 5819 5819 5820 5820 5821 5821 5822 5823 5823 5823 5823 5824 5824 5824 5824 5824 5825 5824 5823 5823 5823 5825 5826 5825 5825 5827 5828 5827 5827 5827 5828 5828 5828 5828 5827 5827 5826 5825 5824 5823 5822 5822 5821 5820 5820
5813 5813 5813 5812 5813 5813 5813 5813 5814 5814 5814 5814 5814 5815 5815 5815 5816 5817 5817 5818 5818 5819 5820 5821 5821 5821 5822 5822 5822 5822 5822 5823 5823 5823 5823 5822 5821 5822 5825 5825 5824 5825 5827 5826 5826 5827 5827 5828 5828 5827 5827 5827 5826 5825 5824 5823 5822 5821 5821 5820 5819 5819
5809 5809 5809 5809 5809 5809 5810 5810 5811 5811 5811 5812 5812 5812 5812 5813 5814 5815 5816 5816 5817 5817 5818 5819 5819 5820 5820 5821 5821 5821 5821 5822 5822 5822 5822 5821 5820 5821 5823 5823 5823 5824 5826 5825 5825 5826 5827 5827 5827 5827 5827 5826 5826 5824 5823 5822 5821 5821 5820 5819 5818 5818
5807 5805 5804 5804 5805 5806 5806 5807 5808 5809 5808 5809 5809 5809 5809 5810 5812 5813 5814 5814 5815 5816 5817 5817 5817 5818 5819 5820 5820 5820 5821 5821 5821 5821 5821 5820 5820 5820 5821 5821 5821 5823 5824 5824 5825 5825 5826 5827 5826 5826 5826 5826 5825 5824 5823 5822 5821 5820 5820 5819 5818 5817
5805 5803 5802 5802 5803 5804 5805 5806 5806 5807 5806 5806 5806 5806 5807 5808 5809 5811 5812 5813 5813 5814 5815 5815 5815 5816 5818 5819 5819 5819 5820 5820 5821 5821 5820 5819 5820 5820 5820 5820 5820 5821 5823 5823 5824 5824 5825 5826 5826 5825 5825 5825 5824 5823 5823 5822 5821 5820 5819 5818 5818 5817
5802 5802 5801 5801 5802 5803 5804 5805 5805 5805 5805 5805 5805 5805 5806 5807 5807 5809 5810 5811 5812 5812 5813 5813 5813 5814 5816 5817 5817 5818 5819 5820 5820 5820 5819 5818 5819 5820 5819 5819 5818 5820 5821 5821 5822 5823 5824 5825 5825 5824 5824 5824 5824 5823 5823 5822 5821 5820 5819 5818 5818 5817
5800 5800 5798 5797 5799 5800 5802 5803 5802 5803 5803 5803 5804 5804 5805 5805 5806 5807 5808 5809 5810 5810 5811 5811 5811 5812 5814 5815 5816 5816 5817 5819 5819 5819 5818 5818 5818 5819 5818 5818 5818 5819 5819 5820 5821 5821 5822 5824 5824 5823 5823 5823 5823 5823 5822 5822 5821 5820 5819 5818 5817 5817
5797 5796 5795 5794 5795 5798 5799 5799 5799 5799 5800 5800 5802 5803 5804 5804 5805 5805 5806 5807 5807 5808 5809 5809 5810 5811 5812 5813 5814 5815 5816 5818 5818 5818 5818 5817 5818 5818 5817 5816 5817 5818 5818 5818 5819 5820 5821 5822 5823 5822 5822 5822 5822 5822 5822 5821 5820 5819 5818 5818 5817 5816
5794 5793 5792 5791 5792 5794 5794 5795 5796 5796 5797 5798 5800 5801 5802 5803 5804 5804 5805 5805 5805 5807 5807 5808 5808 5810 5811 5812 5812 5814 5815 5817 5817 5817 5817 5816 5817 5817 5816 5815 5816 5817 5817 5817 5818 5819 5820 5821 5821 5821 5821 5821 5821 5821 5821 5820 5819 5818 5818 5817 5817 5816
5790 5789 5788 5787 5788 5790 5790 5791 5792 5794 5795 5796 5798 5799 5800 5802 5802 5803 5804 5803 5804 5805 5806 5806 5807 5808 5809 5810 5811 5813 5814 5816 5816 5816 5816 5815 5816 5816 5815 5815 5815 5816 5816 5816 5817 5818 5819 5820 5820 5820 5820 5820 5820 5820 5820 5819 5819 5818 5817 5817 5816 5816
5787 5785 5783 5783 5785 5786 5787 5788 5790 5792 5794 5795 5797 5798 5799 5800 5801 5802 5802 5802 5803 5803 5804 5805 5806 5806 5807 5808 5810 5811 5813 5814 5815 5815 5816 5815 5815 5815 5814 5814 5815 5815 5815 5815 5816 5817 5818 5819 5819 5819 5819 5819 5819 5819 5819 5819 5818 5818 5817 5817 5816 5816
5788 5783 5778 5780 5783 5783 5784 5786 5788 5790 5792 5794 5795 5796 5798 5799 5800 5800 5801 5801 5801 5802 5803 5804 5804 5805 5806 5807 5808 5810 5812 5813 5814 5814 5815 5815 5815 5814 5813 5814 5814 5814 5814 5814 5815 5816 5817 5817 5818 5818 5818 5818 5818 5818 5818 5818 5818 5817 5816 5816 5816 5815
5788 5783 5778 5780 5781 5780 5781 5784 5786 5789 5791 5793 5794 5795 5796 5798 5798 5799 5799 5800 5800 5800 5801 5802 5803 5803 5804 5806 5807 5809 5810 5811 5812 5812 5813 5814 5814 5813 5813 5814 5813 5813 5813 5813 5814 5815 5816 5816 5816 5817 5817 5817 5817 5817 5817 5817 5816 5816 5815 5815 5815 5815
5783 5779 5778 5780 5780 5780 5781 5782 5784 5787 5789 5790 5792 5793 5794 5796 5797 5797 5797 5798 5798 5799 5799 5800 5801 5802 5803 5804 5806 5807 5808 5809 5810 5811 5812 5812 5812 5812 5813 5813 5813 5812 5813 5813 5813 5814 5814 5814 5815 5816 5816 5816 5816 5816 5816 5816 5815 5814 5814 5814 5813 5813
5780 5776 5776 5777 5778 5780 5781 5781 5783 5785 5786 5788 5790 5791 5793 5794 5795 5795 5796 5796 5796 5796 5797 5798 5799 5800 5802 5803 5805 5805 5806 5807 5808 5809 5810 5810 5810 5811 5812 5812 5812 5812 5812 5812 5813 5813 5813 5813 5814 5814 5814 5815 5815 5815 5815 5815 5814 5813 5813 5812 5812 5812
5780 5778 5777 5776 5777 5780 5780 5781 5782 5783 5785 5787 5788 5790 5791 5792 5793 5794 5794 5794 5794 5794 5794 5796 5797 5799 5801 5802 5803 5804 5804 5805 5806 5807 5808 5808 5809 5810 5810 5810 5810 5811 5811 5811 5811 5811 5811 5812 5813 5813 5813 5813 5814 5814 5814 5813 5813 5812 5812 5811 5811 5811
5778 5778 5779 5779 5779 5780 5780 5780 5781 5781 5783 5784 5786 5788 5789 5790 5791 5792 5792 5792 5792 5792 5792 5793 5795 5797 5799 5800 5801 5802 5802 5803 5804 5805 5806 5807 5808 5808 5808 5808 5809 5809 5810 5810 5809 5809 5810 5810 5811 5811 5811 5812 5812 5813 5813 5812 5812 5811 5811 5810 5810 5810
5777 5776 5777 5778 5778 5778 5778 5778 5778 5779 5781 5782 5784 5785 5786 5787 5788 5789 5790 5790 5790 5791 5791 5792 5793 5794 5796 5798 5799 5800 5801 5801 5802 5803 5804 5805 5806 5806 5806 5807 5807 5807 5807 5808 5807 5807 5807 5808 5808 5809 5810 5810 5811 5811 5811 5811 5810 5810 5810 5809 5809 5809
5774 5773 5773 5773 5774 5775 5775 5776 5776 5776 5777 5779 5780 5781 5782 5783 5785 5786 5788 5788 5789 5789 5790 5790 5791 5792 5794 5796 5797 5798 5799 5800 5800 5801 5801 5803 5803 5804 5804 5805 5805 5805 5805 5805 5805 5805 5805 5806 5806 5807 5808 5809 5809 5810 5810 5809 5809 5809 5809 5808 5808 5808
5771 5771 5770 5770 5771 5772 5773 5774 5775 5775 5775 5775 5776 5778 5779 5780 5782 5783 5785 5786 5787 5788 5788 5789 5789 5791 5792 5794 5795 5797 5797 5798 5798 5798 5799 5800 5801 5802 5802 5803 5803 5803 5803 5803 5803 5803 5804 5804 5805 5805 5806 5807 5808 5808 5808 5807 5807 5807 5807 5807 5807 5807
5768 5769 5770 5769 5770 5770 5771 5772 5773 5774 5775 5775 5775 5775 5776 5778 5779 5781 5782 5783 5784 5785 5786 5786 5788 5789 5790 5791 5793 5794 5795 5795 5795 5796 5797 5797 5798 5799 5800 5800 5801 5801 5801 5801 5801 5801 5802 5802 5803 5804 5805 5805 5806 5806 5805 5805 5805 5806 5806 5806 5806 5806
5765 5766 5768 5768 5768 5768 5769 5770 5771 5772 5773 5774 5774 5774 5774 5775 5777 5778 5779 5780 5781 5782 5783 5783 5785 5786 5787 5789 5790 5792 5792 5792 5793 5794 5795 5795 5796 5797 5797 5798 5799 5799 5799 5799 5799 5800 5800 5800 5801 5802 5803 5804 5804 5804 5803 5803 5803 5804 5804 5805 5805 5805
5762 5763 5764 5765 5766 5766 5766 5767 5769 5771 5771 5772 5773 5773 5773 5773 5774 5775 5777 5777 5778 5779 5779 5780 5781 5782 5784 5786 5787 5789 5789 5790 5791 5792 5792 5793 5794 5795 5795 5796 5797 5798 5798 5798 5798 5798 5799 5799 5800 5801 5802 5802 5802 5802 5802 5802 5802 5802 5803 5803 5804 5804
5758 5759 5760 5761 5762 5762 5763 5764 5767 5768 5769 5770 5771 5771 5771 5772 5772 5773 5774 5774 5775 5776 5777 5778 5778 5779 5781 5783 5784 5786 5786 5787 5788 5789 5790 5792 5792 5793 5793 5794 5795 5795 5796 5796 5796 5797 5798 5798 5798 5799 5800 5800 5800 5800 5800 5800 5800 5800 5801 5802 5802 5803
5755 5755 5755 5756 5757 5758 5759 5761 5763 5765 5766 5767 5767 5768 5769 5769 5770 5770 5771 5771 5772 5773 5774 5775 5776 5777 5779 5780 5781 5783 5784 5784 5785 5787 5788 5789 5790 5791 5791 5792 5793 5793 5794 5794 5795 5796 5796 5796 5797 5797 5797 5798 5799 5798 5798 5798 5798 5798 5799 5800 5801 5801
5752 5753 5753 5754 5755 5755 5755 5757 5759 5761 5762 5763 5764 5765 5766 5766 5767 5767 5768 5768 5769 5770 5772 5773 5773 5775 5776 5777 5778 5780 5781 5782 5783 5784 5786 5787 5788 5789 5790 5790 5791 5791 5792 5793 5794 5794 5794 5795 5795 5795 5795 5796 5797 5797 5796 5796 5796 5797 5797 5798 5799 5799